| time (UTC) | temp F | wind direction | speed knots | gust knots | rain 1hr in | rain 24hr in | rain mn in | humidity % | barometer mb |
| 20260507070706 | 60 | 0.0 | 0.0 | 0.00 | 0.00 | 0.00 | 82 | 1022.7 | |
| 20260507065706 | 60 | 0.0 | 0.0 | 0.00 | 0.00 | 0.00 | 84 | 1022.8 | |
| 20260507064706 | 59 | 0.0 | 0.0 | 0.00 | 0.00 | 0.00 | 86 | 1022.9 | |
| 20260507063706 | 58 | 0.0 | 0.0 | 0.00 | 0.00 | 0.00 | 86 | 1022.7 | |
| 20260507062706 | 58 | 0.0 | 0.0 | 0.00 | 0.00 | 0.00 | 87 | 1022.7 | |
| 20260507061706 | 59 | 0.0 | 0.0 | 0.00 | 0.00 | 0.00 | 84 | 1022.8 | |
| 20260507060706 | 59 | 0.0 | 0.0 | 0.00 | 0.00 | 0.00 | 82 | 1022.4 | |
| 20260507055706 | 59 | 0.0 | 0.0 | 0.00 | 0.00 | 0.00 | 83 | 1022.2 | |
| 20260507054706 | 59 | 0.0 | 0.0 | 0.00 | 0.00 | 0.00 | 82 | 1022.1 | |
| 20260507053707 | 58 | 0.0 | 0.0 | 0.00 | 0.00 | 0.00 | 83 | 1022.2 | |
| 20260507052706 | 58 | 0.0 | 0.0 | 0.00 | 0.00 | 0.00 | 83 | 1022.2 | |
| 20260507051706 | 58 | 0.0 | 0.0 | 0.00 | 0.00 | 0.00 | 85 | 1022.3 | |
| 20260507050706 | 58 | 0.0 | 0.0 | 0.00 | 0.00 | 0.00 | 84 | 1022.2 | |
| 20260507045706 | 57 | 0.0 | 0.0 | 0.00 | 0.00 | 0.00 | 84 | 1022.2 | |
| 20260507044706 | 57 | 0.0 | 0.0 | 0.00 | 0.00 | 0.00 | 84 | 1022.0 | |
| 20260507043706 | 57 | 0.0 | 0.0 | 0.00 | 0.00 | 0.00 | 83 | 1021.8 | |
| 20260507042706 | 57 | 0.0 | 0.0 | 0.00 | 0.00 | 0.00 | 84 | 1021.8 | |
| 20260507041706 | 57 | 0.0 | 0.0 | 0.00 | 0.00 | 0.00 | 85 | 1021.6 | |
| 20260507040706 | 57 | 0.0 | 0.0 | 0.00 | 0.00 | 0.00 | 86 | 1021.3 | |
| 20260507035706 | 57 | 0.0 | 0.0 | 0.00 | 0.00 | 0.00 | 84 | 1021.2 | |
| 20260507034706 | 57 | 0.0 | 0.0 | 0.00 | 0.00 | 0.00 | 84 | 1021.2 | |
| 20260507033706 | 57 | 0.0 | 0.0 | 0.00 | 0.00 | 0.00 | 84 | 1021.2 | |
| 20260507032707 | 57 | 0.0 | 0.0 | 0.00 | 0.00 | 0.00 | 85 | 1021.1 | |
| 20260507031706 | 57 | 0.0 | 0.0 | 0.00 | 0.00 | 0.00 | 86 | 1021.0 | |
| 20260507030706 | 56 | 0.0 | 0.0 | 0.00 | 0.00 | 0.00 | 86 | 1020.9 | |
| 20260507025706 | 56 | 0.0 | 0.0 | 0.00 | 0.00 | 0.00 | 84 | 1021.0 | |
| 20260507024706 | 56 | 0.0 | 0.0 | 0.00 | 0.00 | 0.00 | 84 | 1021.0 | |
| 20260507023706 | 56 | 0.0 | 0.0 | 0.00 | 0.00 | 0.00 | 83 | 1020.9 | |
| 20260507022706 | 56 | 0.0 | 0.0 | 0.00 | 0.00 | 0.00 | 83 | 1020.9 | |
| 20260507021706 | 56 | 0.0 | 0.0 | 0.00 | 0.00 | 0.00 | 83 | 1020.8 | |
| 20260507020706 | 56 | 0.0 | 0.0 | 0.00 | 0.00 | 0.00 | 83 | 1020.8 | |
| 20260507015707 | 57 | 0.0 | 0.0 | 0.00 | 0.00 | 0.00 | 82 | 1020.8 | |
| 20260507014706 | 57 | 0.0 | 0.0 | 0.00 | 0.00 | 0.00 | 82 | 1020.9 | |
| 20260507013706 | 57 | 0.0 | 0.0 | 0.00 | 0.00 | 0.00 | 83 | 1020.9 | |
| 20260507012706 | 57 | 0.0 | 0.0 | 0.00 | 0.00 | 0.00 | 82 | 1020.7 | |
| 20260507011706 | 57 | 0.0 | 0.0 | 0.00 | 0.00 | 0.00 | 81 | 1020.8 | |
| 20260507010706 | 57 | 0.0 | 0.0 | 0.00 | 0.00 | 0.00 | 81 | 1020.7 | |
| 20260507005706 | 58 | 0.0 | 0.0 | 0.00 | 0.00 | 0.00 | 81 | 1020.5 | |
| 20260507004706 | 58 | 0.0 | 0.0 | 0.00 | 0.00 | 0.00 | 81 | 1020.4 | |
| 20260507003706 | 58 | 0.0 | 0.0 | 0.00 | 0.00 | 0.00 | 81 | 1020.5 | |
| 20260507002706 | 58 | 0.0 | 0.0 | 0.00 | 0.00 | 0.00 | 81 | 1020.4 | |
| 20260507001706 | 58 | 0.0 | 0.0 | 0.00 | 0.00 | 0.00 | 81 | 1020.4 | |
| 20260507000706 | 59 | 0.0 | 0.0 | 0.00 | 0.00 | 0.00 | 81 | 1020.4 | |
| 20260506235707 | 60 | 0.0 | 0.0 | 0.00 | 0.00 | 0.00 | 81 | 1020.5 | |
| 20260506234707 | 60 | 0.0 | 0.0 | 0.00 | 0.00 | 0.00 | 80 | 1020.6 | |
| 20260506233707 | 60 | 0.0 | 0.0 | 0.00 | 0.00 | 0.00 | 80 | 1020.5 | |
| 20260506232707 | 61 | 0.0 | 0.0 | 0.00 | 0.00 | 0.00 | 81 | 1020.4 | |
| 20260506231707 | 61 | 0.0 | 0.0 | 0.00 | 0.00 | 0.00 | 81 | 1020.6 | |
| 20260506230707 | 61 | 0.0 | 0.0 | 0.00 | 0.00 | 0.00 | 81 | 1020.6 | |
| 20260506225707 | 62 | 0.0 | 0.0 | 0.00 | 0.00 | 0.00 | 80 | 1020.7 | |
| 20260506224707 | 62 | 0.0 | 0.0 | 0.00 | 0.00 | 0.00 | 80 | 1020.7 | |
| 20260506223707 | 62 | 0.0 | 0.0 | 0.00 | 0.00 | 0.00 | 81 | 1020.6 | |
| 20260506222707 | 62 | 0.0 | 0.0 | 0.00 | 0.00 | 0.00 | 80 | 1020.5 | |
| 20260506221707 | 62 | 0.0 | 0.0 | 0.00 | 0.00 | 0.00 | 79 | 1020.5 | |
| 20260506220707 | 62 | 0.0 | 0.0 | 0.00 | 0.00 | 0.00 | 79 | 1020.5 | |
| 20260506215707 | 62 | 0.0 | 0.0 | 0.00 | 0.00 | 0.00 | 78 | 1020.6 | |
| 20260506214707 | 63 | 0.0 | 0.0 | 0.00 | 0.00 | 0.00 | 78 | 1020.5 | |
| 20260506213707 | 62 | 0.0 | 0.0 | 0.00 | 0.00 | 0.00 | 80 | 1020.5 | |
| 20260506212707 | 62 | 0.0 | 0.0 | 0.00 | 0.00 | 0.00 | 82 | 1020.6 | |
| 20260506211707 | 62 | 0.0 | 0.0 | 0.00 | 0.00 | 0.00 | 82 | 1020.8 | |
| 20260506210707 | 63 | 0.0 | 0.0 | 0.00 | 0.00 | 0.00 | 79 | 1020.8 | |
| 20260506205707 | 63 | 0.0 | 0.0 | 0.00 | 0.00 | 0.00 | 79 | 1020.6 | |
| 20260506204707 | 63 | 0.0 | 0.0 | 0.00 | 0.00 | 0.00 | 80 | 1020.7 | |
| 20260506203707 | 63 | 0.0 | 0.0 | 0.00 | 0.00 | 0.00 | 79 | 1020.6 | |
| 20260506202707 | 62 | 0.0 | 0.0 | 0.00 | 0.00 | 0.00 | 81 | 1020.6 | |
| 20260506201707 | 62 | 0.0 | 0.0 | 0.00 | 0.00 | 0.00 | 84 | 1020.6 | |
| 20260506200707 | 62 | 0.0 | 0.0 | 0.00 | 0.00 | 0.00 | 83 | 1020.6 | |
| 20260506195707 | 62 | 0.0 | 0.0 | 0.00 | 0.00 | 0.00 | 83 | 1020.6 | |
| 20260506194707 | 62 | 0.0 | 0.0 | 0.00 | 0.00 | 0.00 | 83 | 1020.6 | |
| 20260506193707 | 62 | 0.0 | 0.0 | 0.00 | 0.00 | 0.00 | 83 | 1020.6 | |
| 20260506192707 | 63 | 0.0 | 0.0 | 0.00 | 0.00 | 0.00 | 82 | 1020.4 | |
| 20260506191707 | 64 | 0.0 | 0.0 | 0.00 | 0.00 | 0.00 | 77 | 1020.2 | |
| 20260506190707 | 64 | 0.0 | 0.0 | 0.00 | 0.00 | 0.00 | 76 | 1020.0 | |
| 20260506185707 | 64 | 0.0 | 0.0 | 0.00 | 0.00 | 0.00 | 75 | 1019.9 | |
| 20260506184707 | 64 | 0.0 | 0.0 | 0.00 | 0.00 | 0.00 | 75 | 1019.7 | |
| 20260506183707 | 64 | 0.0 | 0.0 | 0.00 | 0.00 | 0.00 | 74 | 1019.8 | |
| 20260506182707 | 65 | 0.0 | 0.0 | 0.00 | 0.00 | 0.00 | 73 | 1019.8 | |
| 20260506181707 | 65 | 0.0 | 0.0 | 0.00 | 0.00 | 0.00 | 72 | 1019.6 | |
| 20260506180707 | 65 | 0.0 | 0.0 | 0.00 | 0.00 | 0.00 | 72 | 1019.4 | |
| 20260506175707 | 66 | 0.0 | 0.0 | 0.00 | 0.00 | 0.00 | 72 | 1019.3 | |
| 20260506174707 | 66 | 0.0 | 0.0 | 0.00 | 0.00 | 0.00 | 71 | 1019.2 | |
| 20260506173707 | 66 | 0.0 | 0.0 | 0.00 | 0.00 | 0.00 | 71 | 1019.2 | |
| 20260506172707 | 67 | 0.0 | 0.0 | 0.00 | 0.00 | 0.00 | 70 | 1019.3 | |
| 20260506171707 | 67 | 0.0 | 0.0 | 0.00 | 0.00 | 0.00 | 70 | 1019.0 | |
| 20260506170707 | 68 | 0.0 | 0.0 | 0.00 | 0.00 | 0.00 | 70 | 1018.9 | |
| 20260506165707 | 68 | 0.0 | 0.0 | 0.00 | 0.00 | 0.00 | 67 | 1018.7 | |
| 20260506164707 | 68 | 0.0 | 0.0 | 0.00 | 0.00 | 0.00 | 67 | 1018.7 | |
| 20260506163707 | 68 | 0.0 | 0.0 | 0.00 | 0.00 | 0.00 | 66 | 1018.7 | |
| 20260506162707 | 68 | 0.0 | 0.0 | 0.00 | 0.00 | 0.00 | 65 | 1018.6 | |
| 20260506161707 | 69 | 0.0 | 0.0 | 0.00 | 0.00 | 0.00 | 66 | 1018.7 | |
| 20260506160707 | 69 | 0.0 | 0.0 | 0.00 | 0.00 | 0.00 | 68 | 1018.8 | |
| 20260506155707 | 67 | 0.0 | 0.0 | 0.00 | 0.00 | 0.00 | 68 | 1019.0 | |
| 20260506154707 | 69 | 0.0 | 0.0 | 0.00 | 0.00 | 0.00 | 62 | 1019.0 | |
| 20260506153707 | 70 | 0.0 | 0.0 | 0.00 | 0.00 | 0.00 | 58 | 1019.0 | |
| 20260506152707 | 71 | 0.0 | 0.0 | 0.00 | 0.00 | 0.00 | 60 | 1019.1 | |
| 20260506151707 | 73 | 0.0 | 0.0 | 0.00 | 0.00 | 0.00 | 55 | 1018.7 | |
| 20260506150707 | 74 | 0.0 | 0.0 | 0.00 | 0.00 | 0.00 | 53 | 1018.5 | |
| 20260506145707 | 76 | 0.0 | 0.0 | 0.00 | 0.00 | 0.00 | 42 | 1018.2 | |
| 20260506144707 | 77 | 0.0 | 0.0 | 0.00 | 0.00 | 0.00 | 41 | 1018.1 | |
| 20260506143708 | 79 | 0.0 | 0.0 | 0.00 | 0.00 | 0.00 | 38 | 1018.1 | |
| 20260506142707 | 80 | 0.0 | 0.0 | 0.00 | 0.00 | 0.00 | 35 | 1018.1 | |
| 20260506141707 | 80 | 0.0 | 0.0 | 0.00 | 0.00 | 0.00 | 35 | 1018.1 | |
| 20260506140707 | 79 | 0.0 | 0.0 | 0.00 | 0.00 | 0.00 | 36 | 1018.2 | |
| 20260506135708 | 79 | 0.0 | 0.0 | 0.00 | 0.00 | 0.00 | 37 | 1018.2 | |
| 20260506134707 | 80 | 0.0 | 0.0 | 0.00 | 0.00 | 0.00 | 35 | 1018.2 | |
| 20260506133707 | 80 | 0.0 | 0.0 | 0.00 | 0.00 | 0.00 | 35 | 1018.4 | |
| 20260506132710 | 80 | 0.0 | 0.0 | 0.00 | 0.00 | 0.00 | 35 | 1018.4 | |
| 20260506131709 | 80 | 0.0 | 0.0 | 0.00 | 0.00 | 0.00 | 35 | 1018.5 | |
| 20260506130707 | 80 | 0.0 | 0.0 | 0.00 | 0.00 | 0.00 | 34 | 1018.5 | |
| 20260506125707 | 79 | 0.0 | 0.0 | 0.00 | 0.00 | 0.00 | 35 | 1018.7 | |
| 20260506124707 | 79 | 0.0 | 0.0 | 0.00 | 0.00 | 0.00 | 37 | 1018.8 | |
| 20260506123707 | 79 | 0.0 | 0.0 | 0.00 | 0.00 | 0.00 | 38 | 1018.9 | |
| 20260506122707 | 78 | 0.0 | 0.0 | 0.00 | 0.00 | 0.00 | 37 | 1019.0 | |
| 20260506121707 | 78 | 0.0 | 0.0 | 0.00 | 0.00 | 0.00 | 36 | 1019.1 | |
| 20260506120707 | 77 | 0.0 | 0.0 | 0.00 | 0.00 | 0.00 | 42 | 1019.1 | |
| 20260506115707 | 78 | 0.0 | 0.0 | 0.00 | 0.00 | 0.00 | 40 | 1019.2 | |
| 20260506114707 | 79 | 0.0 | 0.0 | 0.00 | 0.00 | 0.00 | 37 | 1019.4 | |
| 20260506113707 | 79 | 0.0 | 0.0 | 0.00 | 0.00 | 0.00 | 37 | 1019.6 | |
| 20260506112707 | 78 | 0.0 | 0.0 | 0.00 | 0.00 | 0.00 | 36 | 1019.6 | |
| 20260506111707 | 81 | 0.0 | 0.0 | 0.00 | 0.00 | 0.00 | 35 | 1019.7 | |
| 20260506110707 | 81 | 0.0 | 0.0 | 0.00 | 0.00 | 0.00 | 34 | 1019.8 | |
| 20260506105708 | 81 | 0.0 | 0.0 | 0.00 | 0.00 | 0.00 | 36 | 1019.9 | |
| 20260506104707 | 81 | 0.0 | 0.0 | 0.00 | 0.00 | 0.00 | 36 | 1020.0 | |
| 20260506103708 | 79 | 0.0 | 0.0 | 0.00 | 0.00 | 0.00 | 37 | 1020.1 | |
| 20260506102708 | 80 | 0.0 | 0.0 | 0.00 | 0.00 | 0.00 | 37 | 1020.1 | |
| 20260506101708 | 79 | 0.0 | 0.0 | 0.00 | 0.00 | 0.00 | 36 | 1020.2 | |
| 20260506100708 | 79 | 0.0 | 0.0 | 0.00 | 0.00 | 0.00 | 37 | 1020.3 | |
| 20260506095708 | 79 | 0.0 | 0.0 | 0.00 | 0.00 | 0.00 | 35 | 1020.4 | |
| 20260506094708 | 77 | 0.0 | 0.0 | 0.00 | 0.00 | 0.00 | 39 | 1020.5 | |
| 20260506093708 | 74 | 0.0 | 0.0 | 0.00 | 0.00 | 0.00 | 41 | 1020.6 | |
| 20260506092708 | 75 | 0.0 | 0.0 | 0.00 | 0.00 | 0.00 | 39 | 1020.6 | |
| 20260506091708 | 75 | 0.0 | 0.0 | 0.00 | 0.00 | 0.00 | 40 | 1020.7 | |
| 20260506090708 | 80 | 0.0 | 0.0 | 0.00 | 0.00 | 0.00 | 36 | 1020.7 | |
| 20260506085708 | 76 | 0.0 | 0.0 | 0.00 | 0.00 | 0.00 | 38 | 1020.8 | |
| 20260506084708 | 77 | 0.0 | 0.0 | 0.00 | 0.00 | 0.00 | 37 | 1020.9 | |
| 20260506083708 | 74 | 0.0 | 0.0 | 0.00 | 0.00 | 0.00 | 40 | 1020.9 | |
| 20260506082708 | 74 | 0.0 | 0.0 | 0.00 | 0.00 | 0.00 | 39 | 1020.9 | |
| 20260506081708 | 76 | 0.0 | 0.0 | 0.00 | 0.00 | 0.00 | 37 | 1021.1 | |
| 20260506080708 | 74 | 0.0 | 0.0 | 0.00 | 0.00 | 0.00 | 40 | 1021.1 | |
| 20260506072708 | 73 | 0.0 | 0.0 | 0.00 | 0.00 | 0.00 | 40 | 1021.1 | |
| 20260506071708 | 74 | 0.0 | 0.0 | 0.00 | 0.00 | 0.00 | 40 | 1021.2 |